Terug naar catalogus

GALILEO-PFM

ActiefNavigatieMEO
NORAD 37846·PAYLOAD·🇪🇺 EU

Gelanceerd Oct 21, 2011 vanaf Guiana Space Centre

Loading…

Volgende Passages (komende 24 uur)

TLE

VersSource: CelesTrak SupGP

Epoch: Sep 14, 2026, 23:59 UTC

1 37846C 11060A   26257.99979167  .00000000  00000+0  00000+0 0  2570
2 37846  56.9577 339.3256 0000327 350.3814 257.5188  1.70476020    10

Volg GALILEO-PFM in realtime met AllMySat

Download on the App Store